Troutdale, OR

11:52 PM PST on January 20, 2017 (GMT -0800)
Portland Troutdale

Weather History for KTTD - November, 2012

Change the Weather History Date:

Tuesday, November 13, 2012

  Actual Average Record
Temperature  
Mean Temperature 52 °F 46 °F  
Max Temperature 55 °F 53 °F 71 °F (1999)
Min Temperature 48 °F 39 °F 25 °F (1985)
Degree Days  
Heating Degree Days 13 19  
Month to date heating degree days 173 223  
Cooling Degree Days 0 0  
Month to date cooling degree days 0 0  
Growing Degree Days 1 (Base 50)    
Moisture  
Dew Point 46 °F    
Average Humidity 82    
Maximum Humidity 93    
Minimum Humidity 71    
Precipitation  
Precipitation 0.02 in 0.25 in 1.86 in (1984)
Month to date precipitation 2.13 3.09  
Year to date precipitation 38.18 35.61  
Snow  
Snow 0.00 in - - ()
Month to date snowfall 0.0  
Snow Depth 0.00 in    
Sea Level Pressure  
Sea Level Pressure 30.19 in    
Wind  
Wind Speed 6 mph (East)    
Max Wind Speed 15 mph    
Max Gust Speed 20 mph    
Visibility 10 miles    
Events Rain    
T = Trace of Precipitation, MM = Missing Value Source: NWS Daily Summary

Daily Weather History Graph

Daily Weather History Graph

Search for Another Location

Airport or City:

Trip Planner

Search our weather history database for the weather conditions in past years. The results will help you decide how hot, cold, wet, or windy it might be!

Date:

Astronomy

Nov. 13, 2012 Rise Set
Actual Time 7:06 AM PST 4:40 PM PST
Civil Twilight 6:34 AM PST 5:12 PM PST
Nautical Twilight 5:58 AM PST 5:48 PM PST
Astronomical Twilight 5:24 AM PST 6:23 PM PST
Moon 6:52 AM PST (11/13) 4:36 PM PST (11/13)
Length of Visible Light 10h 37m
Length of Day
9h 33m
Waning Crescent, 0% of the Moon is Illuminated
Nov 13
Waning Crescent
Nov 13
New
Nov 20
First Quarter
Nov 28
Full
Dec 6
Last Quarter

Hourly Weather History & Observations

Time (PST) Temp. Dew Point Humidity Pressure Visibility Wind Dir Wind Speed Gust Speed Precip Events Conditions
12:42 AM 48.2 °F 46.4 °F 93% 30.25 in 10.0 mi East 4.6 mph - N/A   Overcast
12:53 AM 48.0 °F 45.0 °F 89% 30.25 in 10.0 mi East 4.6 mph - N/A   Overcast
1:18 AM 48.2 °F 44.6 °F 87% 30.24 in 10.0 mi ENE 4.6 mph - N/A   Overcast
1:41 AM 48.2 °F 44.6 °F 87% 30.25 in 10.0 mi East 3.5 mph - N/A   Mostly Cloudy
1:53 AM 48.0 °F 46.0 °F 93% 30.25 in 10.0 mi East 3.5 mph - N/A   Overcast
2:08 AM 48.2 °F 46.4 °F 93% 30.25 in 10.0 mi East 5.8 mph - N/A   Overcast
2:53 AM 48.0 °F 46.0 °F 93% 30.24 in 10.0 mi East 4.6 mph - N/A   Overcast
3:53 AM 48.9 °F 46.0 °F 90% 30.23 in 10.0 mi East 5.8 mph - N/A   Overcast
4:53 AM 48.9 °F 46.0 °F 90% 30.22 in 10.0 mi East 4.6 mph - N/A   Overcast
5:53 AM 48.9 °F 45.0 °F 86% 30.22 in 10.0 mi East 6.9 mph - N/A   Overcast
6:53 AM 48.0 °F 44.1 °F 86% 30.22 in 10.0 mi East 10.4 mph - N/A   Mostly Cloudy
7:23 AM 48.2 °F 44.6 °F 87% 30.21 in 10.0 mi East 10.4 mph - N/A   Scattered Clouds
7:53 AM 48.9 °F 45.0 °F 86% 30.22 in 10.0 mi ESE 8.1 mph - N/A   Mostly Cloudy
8:27 AM 48.2 °F 44.6 °F 87% 30.21 in 10.0 mi East 9.2 mph - N/A   Overcast
8:53 AM 50.0 °F 45.0 °F 83% 30.21 in 10.0 mi East 9.2 mph - N/A   Overcast
9:53 AM 51.1 °F 45.0 °F 80% 30.21 in 10.0 mi East 12.7 mph 16.1 mph N/A   Overcast
10:53 AM 52.0 °F 45.0 °F 77% 30.20 in 10.0 mi East 11.5 mph - N/A   Overcast
11:53 AM 54.0 °F 46.0 °F 75% 30.18 in 10.0 mi East 9.2 mph - N/A   Overcast
12:53 PM 54.0 °F 45.0 °F 72% 30.17 in 10.0 mi East 9.2 mph - N/A   Overcast
1:53 PM 54.0 °F 45.0 °F 72% 30.16 in 10.0 mi ENE 8.1 mph - N/A   Mostly Cloudy
2:53 PM 53.1 °F 45.0 °F 74% 30.15 in 10.0 mi East 8.1 mph - N/A   Overcast
3:09 PM 53.6 °F 44.6 °F 72% 30.15 in 10.0 mi East 8.1 mph - N/A   Mostly Cloudy
3:29 PM 53.6 °F 44.6 °F 72% 30.15 in 10.0 mi East 6.9 mph - N/A   Scattered Clouds
3:53 PM 53.1 °F 45.0 °F 74% 30.15 in 10.0 mi East 6.9 mph - N/A   Mostly Cloudy
4:34 PM 51.8 °F 44.6 °F 76% 30.15 in 10.0 mi East 6.9 mph - N/A   Mostly Cloudy
4:53 PM 52.0 °F 45.0 °F 77% 30.15 in 10.0 mi East 4.6 mph - N/A   Overcast
5:22 PM 51.8 °F 44.6 °F 76% 30.15 in 10.0 mi ENE 6.9 mph - N/A   Overcast
5:53 PM 52.0 °F 46.0 °F 80% 30.16 in 10.0 mi East 3.5 mph - N/A   Overcast
6:12 PM 51.8 °F 46.4 °F 82% 30.16 in 10.0 mi East 4.6 mph - N/A   Overcast
6:45 PM 51.8 °F 46.4 °F 82% 30.16 in 10.0 mi East 3.5 mph - N/A   Overcast
6:53 PM 51.1 °F 46.0 °F 83% 30.17 in 10.0 mi East 3.5 mph - N/A   Overcast
7:17 PM 51.8 °F 46.4 °F 82% 30.16 in 10.0 mi ESE 3.5 mph - N/A   Overcast
7:36 PM 51.8 °F 46.4 °F 82% 30.17 in 10.0 mi Calm Calm - N/A   Overcast
7:53 PM 51.1 °F 46.9 °F 86% 30.17 in 10.0 mi East 3.5 mph - N/A   Overcast
8:05 PM 51.8 °F 46.4 °F 82% 30.17 in 10.0 mi East 4.6 mph - N/A   Overcast
8:53 PM 51.1 °F 46.9 °F 86% 30.18 in 10.0 mi East 4.6 mph - N/A   Overcast
9:12 PM 51.8 °F 46.4 °F 82% 30.19 in 10.0 mi East 4.6 mph - 0.00 in Rain Light Rain
9:53 PM 50.0 °F 46.9 °F 89% 30.19 in 10.0 mi East 4.6 mph - 0.00 in Rain Light Rain
10:17 PM 50.0 °F 46.4 °F 87% 30.19 in 10.0 mi Calm Calm - 0.01 in Rain Light Rain
10:53 PM 50.0 °F 46.9 °F 89% 30.20 in 9.0 mi East 4.6 mph - 0.02 in Rain Light Rain
11:00 PM 50.0 °F 46.4 °F 87% 30.20 in 8.0 mi ENE 3.5 mph - 0.00 in Rain Light Rain
11:53 PM 50.0 °F 46.9 °F 89% 30.21 in 10.0 mi Calm Calm - 0.00 in   Overcast